| time (UTC) | temp C | wind direction | speed KPH | gust KPH | rain 1hr cm | rain 24hr cm | rain mn cm | humidity % | barometer mb |
| 20260506051204 | 7 | 21 | 4.8 | 19.3 | 0.00 | 0.00 | 0.00 | 84 | 1012.8 |
| 20260506050704 | 7 | 324 | 3.2 | 8.0 | 0.00 | 0.00 | 0.00 | 84 | 1012.8 |
| 20260506050203 | 7 | 29 | 3.2 | 12.9 | 0.00 | 0.00 | 0.00 | 84 | 1012.8 |
| 20260506044704 | 7 | 0 | 6.4 | 12.9 | 0.00 | 0.00 | 0.00 | 83 | 1012.8 |
| 20260506044204 | 7 | 2 | 4.8 | 19.3 | 0.00 | 0.00 | 0.00 | 83 | 1012.7 |
| 20260506043703 | 7 | 42 | 4.8 | 14.5 | 0.00 | 0.00 | 0.00 | 83 | 1012.7 |
| 20260506041703 | 8 | 21 | 3.2 | 9.7 | 0.00 | 0.00 | 0.00 | 83 | 1012.8 |
| 20260506040705 | 8 | 352 | 6.4 | 16.1 | 0.00 | 0.00 | 0.00 | 83 | 1012.8 |
| 20260506034705 | 8 | 318 | 1.6 | 4.8 | 0.00 | 0.00 | 0.00 | 84 | 1012.7 |
| 20260506034204 | 8 | 41 | 4.8 | 16.1 | 0.00 | 0.00 | 0.00 | 84 | 1012.8 |
| 20260506033704 | 8 | 52 | 4.8 | 14.5 | 0.00 | 0.00 | 0.00 | 84 | 1012.7 |
| 20260506033204 | 8 | 22 | 4.8 | 14.5 | 0.00 | 0.00 | 0.00 | 84 | 1012.6 |
| 20260506031705 | 8 | 46 | 1.6 | 4.8 | 0.00 | 0.00 | 0.00 | 84 | 1012.8 |
| 20260506031203 | 8 | 344 | 3.2 | 19.3 | 0.00 | 0.00 | 0.00 | 84 | 1012.8 |
| 20260506030204 | 8 | 311 | 3.2 | 9.7 | 0.00 | 0.00 | 0.00 | 84 | 1012.8 |
| 20260506024704 | 8 | 25 | 3.2 | 9.7 | 0.00 | 0.00 | 0.00 | 84 | 1012.7 |
| 20260506024204 | 8 | 342 | 3.2 | 9.7 | 0.00 | 0.00 | 0.00 | 84 | 1012.8 |
| 20260506023704 | 9 | 8 | 1.6 | 11.3 | 0.00 | 0.00 | 0.00 | 84 | 1012.7 |
| 20260506023204 | 9 | 20 | 6.4 | 16.1 | 0.00 | 0.00 | 0.00 | 84 | 1012.7 |
| 20260506021703 | 9 | 17 | 4.8 | 14.5 | 0.00 | 0.00 | 0.00 | 84 | 1012.7 |
| 20260506021204 | 9 | 45 | 8.0 | 22.5 | 0.00 | 0.00 | 0.00 | 84 | 1012.7 |
| 20260506020703 | 9 | 34 | 3.2 | 11.3 | 0.00 | 0.00 | 0.00 | 84 | 1012.8 |
| 20260506020204 | 9 | 316 | 3.2 | 16.1 | 0.00 | 0.00 | 0.00 | 84 | 1012.7 |
| 20260506014704 | 9 | 26 | 4.8 | 14.5 | 0.00 | 0.00 | 0.00 | 84 | 1012.8 |
| 20260506014204 | 9 | 17 | 0.0 | 8.0 | 0.00 | 0.00 | 0.00 | 84 | 1012.8 |
| 20260506013703 | 9 | 27 | 1.6 | 4.8 | 0.00 | 0.00 | 0.00 | 84 | 1012.9 |
| 20260506013204 | 9 | 15 | 1.6 | 14.5 | 0.00 | 0.00 | 0.00 | 84 | 1012.9 |
| 20260506011705 | 10 | 51 | 4.8 | 11.3 | 0.00 | 0.00 | 0.00 | 83 | 1012.8 |
| 20260506011204 | 10 | 60 | 3.2 | 16.1 | 0.00 | 0.00 | 0.00 | 83 | 1012.8 |
| 20260506010703 | 10 | 53 | 6.4 | 19.3 | 0.00 | 0.00 | 0.00 | 83 | 1012.9 |
| 20260506010203 | 10 | 46 | 3.2 | 16.1 | 0.00 | 0.00 | 0.00 | 83 | 1013.0 |
| 20260506004704 | 10 | 63 | 4.8 | 12.9 | 0.00 | 0.00 | 0.00 | 82 | 1013.0 |
| 20260506004204 | 10 | 353 | 4.8 | 16.1 | 0.00 | 0.00 | 0.00 | 81 | 1012.9 |
| 20260506003704 | 10 | 56 | 6.4 | 14.5 | 0.00 | 0.00 | 0.00 | 81 | 1012.9 |
| 20260506003203 | 10 | 37 | 3.2 | 16.1 | 0.00 | 0.00 | 0.00 | 81 | 1012.9 |
| 20260506001703 | 10 | 29 | 3.2 | 16.1 | 0.00 | 0.00 | 0.00 | 79 | 1013.0 |
| 20260506001203 | 10 | 16 | 1.6 | 9.7 | 0.00 | 0.00 | 0.00 | 79 | 1013.0 |
| 20260506000703 | 10 | 24 | 8.0 | 16.1 | 0.00 | 0.00 | 0.00 | 78 | 1012.9 |
| 20260506000205 | 10 | 59 | 9.7 | 20.9 | 0.00 | 0.00 | 0.00 | 78 | 1012.9 |
| 20260505234704 | 10 | 353 | 9.7 | 22.5 | 0.00 | 0.00 | 0.00 | 78 | 1012.9 |
| 20260505234203 | 10 | 49 | 4.8 | 22.5 | 0.00 | 0.00 | 0.00 | 79 | 1012.9 |
| 20260505233704 | 10 | 5 | 4.8 | 12.9 | 0.00 | 0.00 | 0.00 | 79 | 1012.8 |
| 20260505231705 | 11 | 42 | 6.4 | 20.9 | 0.00 | 0.00 | 0.00 | 79 | 1012.7 |
| 20260505231204 | 11 | 54 | 9.7 | 16.1 | 0.00 | 0.00 | 0.00 | 79 | 1012.7 |
| 20260505230703 | 11 | 58 | 8.0 | 16.1 | 0.00 | 0.00 | 0.00 | 78 | 1012.7 |
| 20260505224704 | 11 | 356 | 4.8 | 20.9 | 0.00 | 0.00 | 0.00 | 77 | 1012.7 |
| 20260505221704 | 12 | 22 | 4.8 | 19.3 | 0.00 | 0.00 | 0.00 | 76 | 1012.5 |
| 20260505221204 | 12 | 36 | 4.8 | 19.3 | 0.00 | 0.00 | 0.00 | 76 | 1012.5 |
| 20260505220703 | 12 | 13 | 4.8 | 16.1 | 0.00 | 0.00 | 0.00 | 76 | 1012.4 |
| 20260505214204 | 12 | 47 | 8.0 | 20.9 | 0.00 | 0.00 | 0.00 | 77 | 1012.4 |
| 20260505213704 | 12 | 51 | 4.8 | 19.3 | 0.00 | 0.00 | 0.00 | 77 | 1012.3 |
| 20260505213204 | 12 | 19 | 4.8 | 16.1 | 0.00 | 0.00 | 0.00 | 77 | 1012.4 |
| 20260505211704 | 12 | 55 | 4.8 | 22.5 | 0.00 | 0.00 | 0.00 | 77 | 1012.3 |
| 20260505210704 | 12 | 30 | 8.0 | 20.9 | 0.00 | 0.00 | 0.00 | 74 | 1012.3 |
| 20260505210204 | 12 | 9 | 4.8 | 22.5 | 0.00 | 0.00 | 0.00 | 74 | 1012.3 |
| 20260505204704 | 12 | 49 | 8.0 | 16.1 | 0.00 | 0.00 | 0.00 | 74 | 1012.2 |
| 20260505204203 | 12 | 35 | 3.2 | 16.1 | 0.00 | 0.00 | 0.00 | 74 | 1012.3 |
| 20260505203704 | 12 | 54 | 8.0 | 16.1 | 0.00 | 0.00 | 0.00 | 74 | 1012.2 |
| 20260505201703 | 13 | 34 | 8.0 | 20.9 | 0.00 | 0.00 | 0.00 | 74 | 1012.1 |
| 20260505201204 | 13 | 8 | 3.2 | 20.9 | 0.00 | 0.00 | 0.00 | 74 | 1012.1 |
| 20260505200703 | 13 | 13 | 4.8 | 14.5 | 0.00 | 0.00 | 0.00 | 74 | 1012.1 |
| 20260505193703 | 13 | 359 | 3.2 | 8.0 | 0.00 | 0.00 | 0.00 | 73 | 1011.8 |
| 20260505193203 | 13 | 312 | 1.6 | 8.0 | 0.00 | 0.00 | 0.00 | 73 | 1011.7 |
| 20260505191704 | 13 | 313 | 1.6 | 4.8 | 0.00 | 0.00 | 0.00 | 73 | 1011.6 |
| 20260505191204 | 13 | 305 | 3.2 | 9.7 | 0.00 | 0.00 | 0.00 | 72 | 1011.6 |
| 20260505190703 | 13 | 308 | 4.8 | 9.7 | 0.00 | 0.00 | 0.00 | 72 | 1011.5 |
| 20260505190204 | 13 | 17 | 4.8 | 16.1 | 0.00 | 0.00 | 0.00 | 72 | 1011.4 |
| 20260505184203 | 14 | 343 | 3.2 | 11.3 | 0.00 | 0.00 | 0.00 | 72 | 1011.3 |
| 20260505183704 | 14 | 17 | 4.8 | 14.5 | 0.00 | 0.00 | 0.00 | 71 | 1011.3 |
| 20260505183204 | 14 | 328 | 1.6 | 14.5 | 0.00 | 0.00 | 0.00 | 71 | 1011.3 |
| 20260505181705 | 14 | 306 | 6.4 | 14.5 | 0.00 | 0.00 | 0.00 | 70 | 1011.2 |
| 20260505181203 | 14 | 347 | 4.8 | 9.7 | 0.00 | 0.00 | 0.00 | 70 | 1011.3 |
| 20260505180703 | 14 | 337 | 4.8 | 12.9 | 0.00 | 0.00 | 0.00 | 70 | 1011.4 |
| 20260505180203 | 15 | 299 | 3.2 | 16.1 | 0.00 | 0.00 | 0.00 | 70 | 1011.3 |
| 20260505173704 | 14 | 348 | 4.8 | 11.3 | 0.00 | 0.00 | 0.00 | 71 | 1011.4 |
| 20260505173204 | 14 | 310 | 4.8 | 16.1 | 0.00 | 0.00 | 0.00 | 71 | 1011.4 |
| 20260505171704 | 14 | 327 | 3.2 | 8.0 | 0.00 | 0.00 | 0.00 | 72 | 1011.3 |
| 20260505170703 | 14 | 285 | 3.2 | 8.0 | 0.00 | 0.00 | 0.00 | 73 | 1011.3 |
| 20260505164703 | 14 | 299 | 1.6 | 8.0 | 0.00 | 0.00 | 0.00 | 73 | 1011.4 |
| 20260505164204 | 14 | 299 | 3.2 | 8.0 | 0.00 | 0.00 | 0.00 | 73 | 1011.4 |
| 20260505163704 | 14 | 355 | 1.6 | 8.0 | 0.00 | 0.00 | 0.00 | 73 | 1011.4 |
| 20260505163204 | 14 | 354 | 1.6 | 12.9 | 0.00 | 0.00 | 0.00 | 73 | 1011.5 |
| 20260505161703 | 15 | 309 | 3.2 | 12.9 | 0.00 | 0.00 | 0.00 | 72 | 1011.5 |
| 20260505161204 | 15 | 303 | 3.2 | 14.5 | 0.00 | 0.00 | 0.00 | 72 | 1011.5 |
| 20260505160704 | 15 | 300 | 4.8 | 9.7 | 0.00 | 0.00 | 0.00 | 71 | 1011.6 |
| 20260505160203 | 15 | 317 | 4.8 | 12.9 | 0.00 | 0.00 | 0.00 | 71 | 1011.5 |
| 20260505153204 | 15 | 63 | 4.8 | 14.5 | 0.00 | 0.00 | 0.00 | 68 | 1011.5 |
| 20260505151703 | 15 | 342 | 1.6 | 8.0 | 0.00 | 0.00 | 0.00 | 68 | 1011.4 |
| 20260505151204 | 15 | 303 | 0.0 | 9.7 | 0.00 | 0.00 | 0.00 | 68 | 1011.4 |
| 20260505150703 | 15 | 303 | 4.8 | 12.9 | 0.00 | 0.00 | 0.00 | 67 | 1011.5 |
| 20260505150203 | 15 | 13 | 4.8 | 12.9 | 0.00 | 0.00 | 0.00 | 68 | 1011.5 |
| 20260505140204 | 15 | 36 | 1.6 | 14.5 | 0.00 | 0.00 | 0.00 | 69 | 1011.7 |
| 20260505124704 | 16 | 2 | 8.0 | 14.5 | 0.00 | 0.00 | 0.00 | 65 | 1012.1 |
| 20260505124203 | 16 | 291 | 9.7 | 14.5 | 0.00 | 0.00 | 0.00 | 68 | 1012.0 |
| 20260505123704 | 15 | 293 | 9.7 | 19.3 | 0.00 | 0.00 | 0.00 | 69 | 1012.1 |
| 20260505123203 | 15 | 317 | 8.0 | 19.3 | 0.00 | 0.00 | 0.00 | 69 | 1012.1 |
| 20260505121703 | 16 | 299 | 3.2 | 9.7 | 0.00 | 0.00 | 0.00 | 67 | 1012.0 |
| 20260505121204 | 16 | 302 | 11.3 | 19.3 | 0.00 | 0.00 | 0.00 | 69 | 1012.0 |
| 20260505120703 | 15 | 40 | 3.2 | 8.0 | 0.00 | 0.00 | 0.00 | 70 | 1012.0 |
| 20260505120204 | 15 | 63 | 1.6 | 16.1 | 0.00 | 0.00 | 0.00 | 71 | 1012.1 |
| 20260505114704 | 15 | 331 | 4.8 | 12.9 | 0.00 | 0.00 | 0.00 | 74 | 1012.2 |
| 20260505114203 | 14 | 2 | 4.8 | 12.9 | 0.00 | 0.00 | 0.00 | 75 | 1012.2 |
| 20260505113703 | 14 | 303 | 6.4 | 12.9 | 0.00 | 0.00 | 0.00 | 75 | 1012.3 |
| 20260505111705 | 13 | 58 | 4.8 | 12.9 | 0.00 | 0.00 | 0.00 | 74 | 1012.5 |
| 20260505111204 | 14 | 50 | 3.2 | 11.3 | 0.00 | 0.00 | 0.00 | 76 | 1012.5 |
| 20260505110703 | 13 | 300 | 6.4 | 12.9 | 0.00 | 0.00 | 0.00 | 77 | 1012.6 |
| 20260505110203 | 13 | 298 | 3.2 | 16.1 | 0.00 | 0.00 | 0.00 | 79 | 1012.6 |
| 20260505101704 | 12 | 29 | 3.2 | 8.0 | 0.00 | 0.00 | 0.00 | 81 | 1012.9 |
| 20260505101203 | 12 | 53 | 4.8 | 11.3 | 0.00 | 0.00 | 0.00 | 80 | 1012.9 |
| 20260505100704 | 12 | 34 | 3.2 | 9.7 | 0.00 | 0.00 | 0.00 | 80 | 1012.9 |
| 20260505100206 | 12 | 348 | 3.2 | 19.3 | 0.00 | 0.00 | 0.00 | 79 | 1012.9 |
| 20260505094703 | 12 | 39 | 4.8 | 14.5 | 0.00 | 0.00 | 0.00 | 83 | 1012.8 |
| 20260505093704 | 12 | 52 | 9.7 | 16.1 | 0.00 | 0.00 | 0.00 | 83 | 1012.9 |
| 20260505093204 | 12 | 66 | 4.8 | 12.9 | 0.00 | 0.00 | 0.00 | 83 | 1013.0 |
| 20260505091204 | 12 | 313 | 3.2 | 14.5 | 0.00 | 0.00 | 0.00 | 84 | 1013.0 |
| 20260505090703 | 12 | 301 | 4.8 | 12.9 | 0.00 | 0.00 | 0.00 | 85 | 1013.1 |
| 20260505090204 | 12 | 302 | 4.8 | 12.9 | 0.00 | 0.00 | 0.00 | 85 | 1013.1 |
| 20260505084703 | 12 | 300 | 1.6 | 8.0 | 0.00 | 0.00 | 0.00 | 86 | 1013.3 |
| 20260505084203 | 11 | 19 | 3.2 | 9.7 | 0.00 | 0.00 | 0.00 | 87 | 1013.3 |
| 20260505083704 | 11 | 64 | 4.8 | 11.3 | 0.00 | 0.00 | 0.00 | 87 | 1013.2 |
| 20260505083205 | 11 | 297 | 1.6 | 12.9 | 0.00 | 0.00 | 0.00 | 87 | 1013.3 |
| 20260505081203 | 11 | 310 | 4.8 | 8.0 | 0.00 | 0.00 | 0.00 | 88 | 1013.3 |
| 20260505080703 | 11 | 311 | 1.6 | 8.0 | 0.00 | 0.00 | 0.00 | 88 | 1013.2 |
| 20260505080204 | 11 | 41 | 1.6 | 14.5 | 0.00 | 0.00 | 0.00 | 88 | 1013.3 |
| 20260505074703 | 11 | 320 | 3.2 | 12.9 | 0.00 | 0.00 | 0.00 | 88 | 1013.1 |
| 20260505074204 | 11 | 358 | 3.2 | 9.7 | 0.00 | 0.00 | 0.00 | 88 | 1013.2 |
| 20260505073704 | 11 | 299 | 4.8 | 12.9 | 0.00 | 0.00 | 0.00 | 88 | 1013.2 |
| 20260505073203 | 11 | 345 | 3.2 | 12.9 | 0.00 | 0.00 | 0.00 | 88 | 1013.2 |
| 20260505071704 | 11 | 330 | 1.6 | 8.0 | 0.00 | 0.00 | 0.00 | 88 | 1013.3 |
| 20260505070206 | 11 | 29 | 3.2 | 11.3 | 0.00 | 0.00 | 0.00 | 89 | 1013.3 |
| 20260505064704 | 11 | 9 | 3.2 | 9.7 | 0.00 | 0.00 | 0.00 | 91 | 1013.4 |
| 20260505064203 | 11 | 320 | 3.2 | 4.8 | 0.00 | 0.00 | 0.00 | 91 | 1013.4 |
| 20260505063704 | 11 | 309 | 4.8 | 9.7 | 0.00 | 0.00 | 0.00 | 91 | 1013.3 |
| 20260505063204 | 11 | 342 | 1.6 | 9.7 | 0.00 | 0.00 | 0.00 | 92 | 1013.4 |
| 20260505061704 | 10 | 317 | 1.6 | 3.2 | 0.00 | 0.00 | 0.00 | 92 | 1013.2 |
| 20260505061204 | 10 | 320 | 1.6 | 4.8 | 0.00 | 0.00 | 0.00 | 91 | 1013.2 |
| 20260505060703 | 10 | 10 | 3.2 | 8.0 | 0.00 | 0.00 | 0.00 | 92 | 1013.3 |
| 20260505060204 | 10 | 297 | 1.6 | 9.7 | 0.00 | 0.00 | 0.00 | 92 | 1013.3 |
| 20260505054203 | 10 | 319 | 3.2 | 4.8 | 0.00 | 0.00 | 0.00 | 92 | 1013.3 |
| 20260505053706 | 10 | 19 | 1.6 | 4.8 | 0.00 | 0.00 | 0.00 | 92 | 1013.4 |
| 20260505053203 | 10 | 313 | 1.6 | 4.8 | 0.00 | 0.00 | 0.00 | 92 | 1013.4 |